Weather in Sanaga

Russia / Republic of Buryatia     50°43′57″N   102°48′11″E
temp.,
°C
wind,
m/s
gust,
m/s
humid.,
%
clouds,
%
prec.,
mm/h
press.,
hPa
HPBL,
m
20 september, mon
mon2023:00+7se01813 0.0 101210
02:00+5ne00904 0.0 101110
05:00+4nnw11933 0.1 101110
08:00+6nne00885 0.1 101034
11:00+14se12603 0.0 1006572
14:00+19s36364 0.0 10012582
17:00+18s46470 0.0 10001370
20:00+9sse228673 0.0 100231
21 september, tue
tue2123:00+8sse118591 0.1 100320
02:00+6nw22896 0.1 100518
05:00+4ene239492 0.3 100889
08:00+4nne2480100 0.3 1010564
11:00+5ne2266100 0.0 1011835
14:00+6ese126790 0.8 1010933
17:00+7se226883 0.0 1010749
20:00+4ese238634 0.1 1011109
22 september, wed
wed2223:00+2se129561 0.1 101361
02:00+3ene1192100 0.1 1012108
05:00+3ene1192100 0.0 101277
08:00+3e1190100 0.0 1012108
11:00+5e2473100 0.0 1012628
14:00+7e236499 0.3 10101037
17:00+3e2298100 5.7 1013362
20:00+2ne1299100 8.5 1017185
23 september, thu
thu2323:00+2n1299100 1.8 1019153
02:000nw119566 1.9 102196
05:00−3nnw119611 0.0 102326
08:00−3nnw019415 0.0 102470
11:00+5sse127421 0.0 1020623
14:00+9se135432 0.0 10161483
17:00+9se2357100 0.0 1015829
20:00+2e119495 0.0 101913
24 september, fri
fri2423:000ne1196100 0.0 102112
02:00−1n119619 0.0 102010
05:00−2nne0196100 0.0 102110
08:000nnw0088100 0.0 102055
11:00+8e11635 0.0 1017661
14:00+8e2263100 0.0 10151133
17:00+6ene237541 0.0 1017555
20:00+1e1196100 0.1 102014